COSMOS 2251 DEB, 34857

Orbit data source: Space-Track

COSMOS 2251 DEB, 34857 is space debris in LEO originally from a launch on Wed, 16 Jun 1993 UTC launched from the Plesetsk Missile And Space Complex (PKMTR). The debris from Iridium 33, an American commercial communications satellite, has been tracked extensively since its accidental collision with the defunct Russian satellite Cosmos 2251 in 2009. This event, occurring at high speed in low Earth orbit (LEO), generated thousands of pieces of space debris, significantly increasing the risk of further collisions. The Iridium 33 debris cloud has impacted space traffic management and orbital debris mitigation strategies, making it a subject of ongoing study in space situational awareness.

Loading next visibility...
Identifier
34857, 1993-036ACB
Orbit
LEO
Country
Flag of CISCIS
Related business
Manufacturer
Unknown
Mission
Spacecraft
Bus & Motor
Unknown
Mass
Unknown
Launch date (UTC)
1993-06-16 (33 years ago)
Launch vehicle
Unknown
Launch site
Plesetsk Missile And Space Complex (PKMTR)
Object type
Payload
Rocket body
Debris
Shape & HBR
Unknown shape, 0.1 m
Radar Cross Section
Small (<0.1 m²)

Expand to show TLE details & history
Last TLE update: 16 hours ago

TLE from 16 hours ago
0 COSMOS 2251 DEB
1 34857U 93036ACB 26062.12047721  .00004329  00000-0  88888-3 0  9999
2 34857  74.0162 313.4111 0063374  57.3902 109.1800 14.59683033890730
Epoch: 2026-03-03T02:53Z
TLE epoch observation values (Epoch: 2026-03-03T02:53:29.230Z)
Latitude
12.2093°
Longitude
-74.39911°
Altitude
711.056 km
Speed
7.493 km/s
True Right ascension
08h 39m 30s
True Declination
12° 08' 17"
Sunlit
Object was in full shadow at epoch
Visualization orbit readout
Latitude
Unknown
Longitude
Unknown
Altitude
Unknown
Speed
Unknown
Apparent Right ascension
Unknown
Apparent Declination
Unknown
Sunlit
N/A
Visualization observer readout
Local Sidereal Time
22:59:57
Azimuth
Unknown
Elevation
Unknown
Doppler factor
Unknown
Orbital elements
Apogee altitude
736.602 km
Perigee altitude
646.992 km
Semi-major axis
7,069.934 km
Eccentricity
0.00634
Inclination
74.0162°
RAAN
313.4111°
Arg. of periapsis
57.3902°
True anomaly
109.8641°
Mean anomaly
109.18°
Eccentric anomaly
109.52223°
Mean motion
3.65107 °/min
Orbital period
98.6 mins
BSTAR
0.00088888
Loading maneuver chart data...
Computing Atmospheric mass density...

Documentation

Showing up to 5 results
|